Regional Weather Roundup
Issued by NWS Albany, NY

Home | Current Version | Previous Version | Text Only | Print | Product List | Glossary On
Versions: 1 2 3 4 5 6 7 8 9 10 11 12 13 14 15 16 17 18 19 20 21 22 23 24 25 26 27 28 29 30 31 32 33 34 35 36 37 38 39 40 41 42 43 44 45 46 47 48 49 50
003
ASUS41 KALY 090310
RWRALY

NEW YORK STATE HOURLY WEATHER ROUNDUP
NATIONAL WEATHER SERVICE ALBANY NY
1000 PM EST MON FEB 08 2016

NOTE: "FAIR" INDICATES FEW OR NO CLOUDS BELOW 12,000 FEET WITH NO
SIGNIFICANT WEATHER AND/OR NO OBSTRUCTIONS TO VISIBILITY.

NYZ032-033-038>043-046>054-057>066-NYZ062>081-090400-
EAST


CITY           SKY/WX    TMP DP  RH WIND       PRES   REMARKS
ALBANY         LGT SNOW  25  21  85 CALM      29.80F FOG
GLENS FALLS    LGT SNOW  25  21  85 CALM      29.79S VSB 1
POUGHKEEPSIE   LGT SNOW  27  21  78 N5        29.80S WCI  22
NEWBURGH       LGT SNOW  25  23  93 NE9       29.79R WCI  15
MONTGOMERY     LGT SNOW  27  23  85 NE7       29.78S FOG     WCI  19
WHITE PLAINS   LGT SNOW  26  22  84 E5        29.78S FOG     WCI  20
ISLIP          FLURRIES  27  22  81 N6        29.78F WCI  20
NEW YORK CITY  FRZ DRZL  28  25  86 NE9       29.80S WCI  20
CENTRAL PARK   CLOUDY    28  22  78 NE6       29.82S WCI  22
$$

NYZ005>009-017-018-044>046-055-056-090400-
CENTRAL


CITY           SKY/WX    TMP DP  RH WIND       PRES   REMARKS
FULTON         CLOUDY    34   5  29 VRB7      29.67S WCI  28
SYRACUSE       CLOUDY    31  10  41 E9        29.67F WCI  23
ROME           CLOUDY    27  19  72 SE18      29.74S WCI  14
ELMIRA         CLOUDY    35  26  69 CALM      29.62S
BINGHAMTON     CLOUDY    30  18  60 SE10      29.62F WCI  21
MONTICELLO     CLOUDY    25  21  86 SE6       29.72S WCI  18
$$

NYZ026>034-041>043-090400-
NORTH


CITY           SKY/WX    TMP DP  RH WIND       PRES   REMARKS
WATERTOWN      CLOUDY    24  12  60 NE12      29.71S WCI  13
FORT DRUM      NOT AVBL
MASSENA        LGT SNOW  20  10  65 E18       29.82F WCI   5
SARANAC LAKE   LGT SNOW  16  12  84 NE8       29.69S FOG     WCI   5
PLATTSBURGH    LGT SNOW  21  14  74 NW8       29.82F WCI  11
$$

NYZ001>004-010>016-019>021-090400-
WEST


CITY           SKY/WX    TMP DP  RH WIND       PRES   REMARKS
NIAGARA FALLS  FLURRIES  36  29  75 E9        29.57F WCI  29
BUFFALO        LGT RAIN  37  31  78 E8        29.57F WCI  31
DUNKIRK        CLOUDY    38  28  67 S8        29.55S WCI  32
JAMESTOWN      CLOUDY    32  28  86 S10       29.52S WCI  24
WELLSVILLE     CLOUDY    31  26  82 S9        29.55F WCI  23
ROCHESTER      CLOUDY    35  21  56 E7        29.61F WCI  29
PENN YAN       CLOUDY    36  24  62 S10       29.61F WCI  28
$$

             KEY
       WCI = WIND CHILL INDEX
       VSB = VISIBILITY
       HX  = HEAT INDEX
$$




USA.gov is the U.S. government's official web portal to all federal, state and local government web resources and services.